World > North America > United States > Pennsylvania

Shamokin, Pennsylvania Regional Weather

Lat: 40.79N, Lon: 76.55W
Wx Zone: PAZ052Web Search

Helpful Tip: Abbreviated, 7 Day, 14 Day Forecasts. There is a weather forecast for every taste.

Feedback
Shamokin Weather Map
UTC Time: 12/3/2020, 22:36
Your Time:

Shamokin, PA Regional Weather

Expires:202012032300;;795274
ASUS41 KOKX 032214
RWROKX

Regional Weather Roundup
National Weather Service New York NY
500 PM EST THU DEC 03 2020

Note: "FAIR" indicates few or no clouds below 12,000 feet with no
significant weather and/or obstructions to visibility.


PAZ047>061-062-071-032300-
Eastern Pennsylvania
  
CITY           SKY/WX    TMP DP  RH WIND       PRES   REMARKS
Philadelphia   MOCLDY    49  24  37 SW7       30.19F                  
Allentown      MOCLDY    40  22  48 W7        30.16F                  
Scranton       CLOUDY    44  19  36 SW5       30.11F                  
$$


SKY/WX - Weather  TMP - Temperature  DP - Dew Point  RH - Relative Humidity
WIND - Wind Direction/Speed PRES - Barometric Pressure VSB - Visibility
WCI - Wind Chill Index E13G22 Wind - East Wind 13 mph/Gusts of 22 mph